This is the latest recevied weather packets stored in our database for station/object K5GTX. If no packets are shown the sender has not sent any weather packets the latest 10 day(s).
| Time | Temp. | Humidity | Pressure | Rain* | Wind** | Luminosity | Snow |
|---|---|---|---|---|---|---|---|
| 1778029988 | 23.33° C | 99% | 1012.4 hPa | 0 mm | - | 0 W/m² | - |
| 1778029686 | 23.33° C | 99% | 1012.3 hPa | 0 mm | - | 0 W/m² | - |
| 1778029384 | 23.33° C | 99% | 1012.3 hPa | 0 mm | - | 0 W/m² | - |
| 1778029080 | 23.33° C | 99% | 1012 hPa | 0 mm | - | 0 W/m² | - |
| 1778028777 | 23.33° C | 99% | 1011.7 hPa | 0 mm | - | 1 W/m² | - |
| 1778028473 | 23.89° C | 99% | 1011.8 hPa | 0 mm | - | 0 W/m² | - |
| 1778028171 | 23.89° C | 99% | 1011.9 hPa | 0 mm | - | 1 W/m² | - |
| 1778027867 | 24.44° C | 99% | 1011.9 hPa | 0 mm | - | 1 W/m² | - |
| 1778027563 | 24.44° C | 99% | 1011.8 hPa | 0 mm | - | 4 W/m² | - |
| 1778027260 | 25° C | 99% | 1011.7 hPa | 0 mm | - | 9 W/m² | - |
| 1778026956 | 25.56° C | 99% | 1011.6 hPa | 0 mm | - | 15 W/m² | - |
| 1778026651 | 25.56° C | 99% | 1011.8 hPa | 0 mm | - | 21 W/m² | - |
| 1778026350 | 26.11° C | 99% | 1011.8 hPa | 0 mm | - | 23 W/m² | - |
| 1778026046 | 26.11° C | 99% | 1011.5 hPa | 0 mm | - | 34 W/m² | - |
| 1778025744 | 26.67° C | 99% | 1011 hPa | 0 mm | - | 50 W/m² | - |
| 1778025441 | 26.67° C | 99% | 1011 hPa | 0 mm | - | 53 W/m² | - |
| 1778025139 | 26.67° C | 99% | 1010.7 hPa | 0 mm | - | 32 W/m² | - |
| 1778024835 | 27.22° C | 99% | 1010.8 hPa | 0 mm | - | 24 W/m² | - |
| 1778024533 | 27.22° C | 99% | 1011 hPa | 0 mm | - | 32 W/m² | - |
| 1778024229 | 27.78° C | 99% | 1010.8 hPa | 0 mm | - | 54 W/m² | - |
| 1778023927 | 28.33° C | 99% | 1011 hPa | 0 mm | - | 32 W/m² | - |
| 1778023624 | 28.89° C | 99% | 1010.7 hPa | 0 mm | - | 54 W/m² | - |
| 1778023321 | 29.44° C | 99% | 1010.6 hPa | 0 mm | - | 67 W/m² | - |
| 1778023018 | 29.44° C | 99% | 1010.4 hPa | 0 mm | - | 93 W/m² | - |
| 1778022717 | 30° C | 99% | 1010.3 hPa | 0 mm | - | 73 W/m² | - |
* Rain latest hour (hover to see other rain measurements)
** Current wind speed in m/s (hover to see current wind gust speed)